GEFSNE_prec_meanprecacc_012.txt.gz
Total_Precipitation_Accumulation
0.05 0.06 0.06 0.10 0.16 0.19 0.17 0.14 0.13 0.15 0.15 0.11 0.05 0.02 0.01 0.00 0.00 0.00 0.00 0.00 0.00 0.00 0.00 0.00 0.00 0.00 0.00 0.00 0.00 0.00 0.00 0.00 0.00 0.00 0.00 0.00 0.00 0.00
0.06 0.06 0.07 0.08 0.12 0.15 0.17 0.15 0.10 0.07 0.08 0.08 0.11 0.05 0.03 0.02 0.01 0.00 0.00 0.00 0.00 0.00 0.00 0.00 0.00 0.00 0.00 0.00 0.00 0.00 0.00 0.00 0.00 0.00 0.00 0.00 0.00 0.00
0.05 0.06 0.10 0.17 0.14 0.13 0.15 0.15 0.12 0.07 0.05 0.05 0.05 0.04 0.03 0.02 0.02 0.01 0.00 0.00 0.00 0.00 0.00 0.00 0.00 0.00 0.00 0.00 0.00 0.00 0.00 0.00 0.00 0.00 0.00 0.00 0.00 0.00
0.01 0.01 0.02 0.06 0.10 0.14 0.17 0.15 0.14 0.10 0.07 0.06 0.05 0.03 0.03 0.02 0.03 0.02 0.01 0.00 0.00 0.00 0.00 0.00 0.00 0.00 0.00 0.00 0.00 0.00 0.00 0.00 0.00 0.00 0.00 0.00 0.00 0.00
0.01 0.01 0.01 0.02 0.05 0.10 0.16 0.20 0.18 0.12 0.09 0.07 0.07 0.08 0.06 0.04 0.03 0.02 0.01 0.01 0.01 0.00 0.00 0.00 0.00 0.00 0.00 0.00 0.00 0.00 0.00 0.00 0.00 0.00 0.00 0.00 0.00 0.00
0.01 0.00 0.01 0.02 0.04 0.08 0.13 0.21 0.27 0.25 0.20 0.15 0.11 0.10 0.10 0.09 0.05 0.03 0.02 0.02 0.02 0.01 0.00 0.00 0.00 0.00 0.00 0.00 0.00 0.00 0.00 0.00 0.00 0.00 0.00 0.00 0.00 0.00
0.02 0.00 0.00 0.01 0.03 0.06 0.08 0.16 0.22 0.27 0.28 0.28 0.23 0.17 0.13 0.10 0.08 0.06 0.03 0.03 0.02 0.01 0.00 0.00 0.00 0.00 0.00 0.00 0.00 0.00 0.00 0.00 0.00 0.00 0.00 0.00 0.00 0.00
0.04 0.01 0.00 0.00 0.01 0.02 0.04 0.06 0.09 0.14 0.18 0.23 0.28 0.27 0.22 0.17 0.14 0.10 0.05 0.03 0.02 0.02 0.01 0.01 0.00 0.00 0.00 0.00 0.00 0.00 0.00 0.00 0.00 0.00 0.00 0.00 0.00 0.00
0.05 0.03 0.02 0.00 0.00 0.01 0.03 0.05 0.06 0.07 0.08 0.10 0.14 0.17 0.19 0.18 0.15 0.10 0.07 0.05 0.05 0.03 0.02 0.01 0.01 0.00 0.00 0.00 0.00 0.00 0.00 0.00 0.00 0.00 0.00 0.00 0.00 0.00
0.07 0.03 0.03 0.01 0.01 0.01 0.01 0.01 0.03 0.05 0.04 0.03 0.05 0.09 0.11 0.13 0.13 0.12 0.10 0.08 0.07 0.05 0.04 0.02 0.02 0.01 0.01 0.00 0.00 0.00 0.00 0.00 0.00 0.00 0.00 0.00 0.00 0.00
0.08 0.06 0.04 0.04 0.03 0.01 0.00 0.01 0.01 0.01 0.03 0.03 0.04 0.07 0.10 0.14 0.16 0.17 0.17 0.16 0.14 0.13 0.11 0.07 0.05 0.04 0.02 0.02 0.01 0.00 0.00 0.00 0.00 0.00 0.00 0.00 0.00 0.00
0.08 0.07 0.09 0.06 0.04 0.02 0.01 0.05 0.09 0.07 0.04 0.06 0.10 0.15 0.17 0.22 0.26 0.25 0.26 0.28 0.27 0.25 0.21 0.17 0.16 0.14 0.11 0.06 0.02 0.01 0.00 0.00 0.00 0.00 0.00 0.00 0.00 0.00
0.04 0.03 0.03 0.04 0.03 0.03 0.04 0.09 0.15 0.08 0.04 0.07 0.13 0.19 0.21 0.19 0.23 0.26 0.29 0.33 0.38 0.40 0.37 0.31 0.26 0.23 0.18 0.13 0.08 0.04 0.01 0.00 0.00 0.00 0.00 0.00 0.00 0.00
0.01 0.01 0.01 0.01 0.02 0.03 0.05 0.08 0.09 0.05 0.04 0.05 0.06 0.08 0.10 0.10 0.09 0.10 0.12 0.15 0.18 0.21 0.22 0.20 0.19 0.17 0.14 0.10 0.07 0.05 0.03 0.01 0.01 0.00 0.00 0.00 0.00 0.00
0.00 0.00 0.00 0.00 0.01 0.01 0.03 0.05 0.07 0.08 0.07 0.06 0.04 0.02 0.02 0.03 0.03 0.03 0.04 0.05 0.06 0.05 0.04 0.05 0.05 0.05 0.05 0.04 0.03 0.02 0.02 0.02 0.01 0.01 0.01 0.01 0.01 0.01
0.01 0.01 0.01 0.01 0.02 0.02 0.04 0.05 0.08 0.09 0.08 0.06 0.02 0.01 0.01 0.01 0.02 0.02 0.02 0.03 0.04 0.04 0.02 0.02 0.02 0.02 0.02 0.02 0.02 0.02 0.02 0.02 0.03 0.04 0.04 0.03 0.03 0.03
0.03 0.03 0.06 0.08 0.07 0.07 0.07 0.07 0.07 0.06 0.04 0.03 0.03 0.02 0.02 0.03 0.02 0.01 0.01 0.02 0.03 0.04 0.04 0.03 0.02 0.02 0.02 0.02 0.02 0.02 0.01 0.02 0.03 0.06 0.07 0.07 0.07 0.07
0.05 0.06 0.15 0.22 0.18 0.16 0.15 0.13 0.12 0.09 0.07 0.05 0.04 0.04 0.03 0.03 0.04 0.04 0.03 0.05 0.05 0.04 0.03 0.01 0.01 0.01 0.01 0.01 0.01 0.01 0.01 0.02 0.03 0.03 0.03 0.03 0.03 0.05
0.12 0.16 0.32 0.35 0.27 0.23 0.21 0.17 0.13 0.08 0.05 0.04 0.02 0.01 0.01 0.01 0.02 0.03 0.03 0.03 0.03 0.02 0.01 0.01 0.01 0.01 0.02 0.02 0.03 0.01 0.03 0.04 0.03 0.02 0.02 0.02 0.01 0.01
0.19 0.30 0.42 0.43 0.36 0.26 0.17 0.09 0.06 0.03 0.02 0.01 0.01 0.01 0.00 0.00 0.01 0.01 0.01 0.00 0.01 0.01 0.02 0.03 0.03 0.03 0.04 0.05 0.05 0.04 0.02 0.03 0.04 0.03 0.02 0.02 0.01 0.01
0.15 0.23 0.30 0.35 0.29 0.14 0.05 0.02 0.01 0.01 0.01 0.00 0.00 0.00 0.00 0.00 0.00 0.00 0.01 0.01 0.01 0.02 0.03 0.03 0.02 0.01 0.02 0.03 0.04 0.04 0.04 0.03 0.03 0.02 0.01 0.01 0.01 0.01
0.04 0.06 0.09 0.08 0.05 0.02 0.01 0.00 0.00 0.00 0.00 0.00 0.00 0.00 0.00 0.01 0.01 0.01 0.01 0.02 0.02 0.02 0.02 0.02 0.01 0.02 0.03 0.05 0.05 0.04 0.03 0.02 0.03 0.04 0.03 0.03 0.02 0.02
0.01 0.01 0.01 0.01 0.00 0.00 0.00 0.00 0.00 0.00 0.00 0.00 0.00 0.00 0.00 0.01 0.01 0.01 0.01 0.01 0.01 0.01 0.01 0.01 0.02 0.02 0.03 0.03 0.03 0.03 0.03 0.03 0.02 0.02 0.02 0.05 0.06 0.05

GEFSNE_prec_meanprecacc_018.txt.gz
Total_Precipitation_Accumulation
0.06 0.07 0.07 0.12 0.19 0.24 0.26 0.27 0.28 0.31 0.33 0.19 0.09 0.04 0.02 0.01 0.01 0.00 0.00 0.00 0.00 0.00 0.00 0.00 0.00 0.00 0.00 0.00 0.00 0.00 0.00 0.00 0.00 0.00 0.00 0.00 0.00 0.00
0.07 0.07 0.07 0.09 0.14 0.18 0.25 0.29 0.28 0.28 0.29 0.21 0.15 0.09 0.07 0.04 0.04 0.01 0.00 0.00 0.00 0.00 0.00 0.00 0.00 0.00 0.00 0.00 0.00 0.00 0.00 0.00 0.00 0.00 0.00 0.00 0.00 0.00
0.08 0.08 0.12 0.18 0.16 0.16 0.23 0.27 0.30 0.31 0.28 0.26 0.15 0.09 0.09 0.07 0.09 0.03 0.01 0.01 0.01 0.01 0.01 0.00 0.00 0.00 0.00 0.00 0.00 0.00 0.00 0.00 0.00 0.00 0.00 0.00 0.00 0.00
0.04 0.03 0.04 0.08 0.13 0.17 0.23 0.25 0.28 0.31 0.29 0.27 0.22 0.16 0.16 0.12 0.12 0.09 0.06 0.03 0.02 0.06 0.09 0.02 0.00 0.00 0.00 0.00 0.00 0.00 0.00 0.00 0.00 0.00 0.00 0.00 0.00 0.00
0.03 0.03 0.02 0.03 0.08 0.13 0.22 0.29 0.32 0.32 0.31 0.25 0.28 0.29 0.22 0.17 0.15 0.10 0.07 0.07 0.06 0.06 0.12 0.06 0.01 0.00 0.00 0.00 0.00 0.00 0.00 0.00 0.00 0.00 0.00 0.00 0.00 0.00
0.03 0.02 0.02 0.03 0.05 0.11 0.19 0.32 0.41 0.43 0.41 0.34 0.32 0.33 0.30 0.24 0.18 0.14 0.13 0.11 0.09 0.07 0.06 0.06 0.04 0.01 0.00 0.00 0.00 0.00 0.00 0.00 0.00 0.00 0.00 0.00 0.00 0.00
0.06 0.03 0.03 0.03 0.04 0.07 0.11 0.22 0.32 0.42 0.47 0.48 0.43 0.38 0.32 0.26 0.21 0.18 0.15 0.16 0.12 0.10 0.09 0.07 0.05 0.04 0.02 0.01 0.01 0.00 0.00 0.00 0.00 0.00 0.00 0.00 0.00 0.00
0.11 0.06 0.05 0.03 0.02 0.03 0.04 0.06 0.11 0.19 0.30 0.39 0.44 0.40 0.40 0.34 0.30 0.24 0.17 0.15 0.13 0.11 0.09 0.11 0.11 0.08 0.07 0.07 0.08 0.07 0.03 0.01 0.00 0.00 0.00 0.00 0.00 0.00
0.10 0.07 0.07 0.03 0.02 0.03 0.07 0.07 0.08 0.09 0.10 0.16 0.24 0.30 0.34 0.37 0.29 0.23 0.18 0.16 0.16 0.13 0.08 0.07 0.09 0.10 0.10 0.10 0.08 0.06 0.04 0.02 0.00 0.00 0.00 0.00 0.00 0.00
0.12 0.07 0.08 0.08 0.07 0.07 0.06 0.07 0.10 0.12 0.08 0.05 0.12 0.20 0.22 0.28 0.27 0.24 0.21 0.16 0.14 0.10 0.07 0.05 0.06 0.07 0.07 0.07 0.06 0.04 0.02 0.01 0.00 0.00 0.00 0.00 0.00 0.00
0.17 0.16 0.16 0.16 0.19 0.13 0.06 0.07 0.12 0.12 0.09 0.06 0.06 0.09 0.11 0.16 0.20 0.24 0.25 0.21 0.19 0.16 0.12 0.08 0.07 0.06 0.06 0.07 0.06 0.04 0.03 0.02 0.01 0.00 0.00 0.00 0.00 0.00
0.22 0.23 0.26 0.19 0.20 0.13 0.05 0.16 0.25 0.19 0.12 0.14 0.17 0.19 0.19 0.23 0.27 0.28 0.35 0.36 0.33 0.30 0.23 0.18 0.17 0.16 0.15 0.13 0.08 0.04 0.03 0.02 0.01 0.01 0.01 0.01 0.01 0.00
0.12 0.14 0.12 0.10 0.08 0.07 0.07 0.17 0.26 0.15 0.09 0.16 0.24 0.26 0.25 0.22 0.25 0.28 0.32 0.38 0.43 0.45 0.40 0.32 0.28 0.25 0.21 0.18 0.12 0.07 0.04 0.03 0.02 0.02 0.02 0.02 0.02 0.02
0.05 0.06 0.04 0.04 0.03 0.04 0.07 0.11 0.13 0.08 0.10 0.14 0.15 0.13 0.14 0.14 0.12 0.13 0.17 0.21 0.24 0.27 0.26 0.22 0.21 0.20 0.17 0.13 0.10 0.08 0.05 0.03 0.03 0.03 0.03 0.03 0.03 0.03
0.01 0.01 0.01 0.01 0.01 0.03 0.04 0.06 0.09 0.12 0.15 0.14 0.13 0.08 0.06 0.06 0.06 0.08 0.11 0.13 0.14 0.11 0.07 0.07 0.08 0.08 0.07 0.06 0.05 0.04 0.04 0.03 0.02 0.02 0.02 0.03 0.03 0.03
0.02 0.03 0.02 0.02 0.03 0.05 0.07 0.09 0.11 0.15 0.16 0.16 0.11 0.07 0.05 0.05 0.06 0.08 0.09 0.09 0.10 0.10 0.07 0.06 0.06 0.05 0.05 0.05 0.05 0.04 0.04 0.05 0.05 0.06 0.06 0.05 0.04 0.04
0.05 0.09 0.14 0.18 0.16 0.15 0.17 0.16 0.19 0.17 0.15 0.15 0.14 0.12 0.11 0.11 0.09 0.06 0.04 0.05 0.06 0.08 0.09 0.09 0.07 0.05 0.04 0.05 0.06 0.06 0.07 0.06 0.08 0.11 0.10 0.09 0.09 0.10
0.09 0.12 0.23 0.33 0.31 0.31 0.29 0.29 0.30 0.26 0.23 0.19 0.16 0.14 0.12 0.10 0.10 0.08 0.06 0.07 0.09 0.07 0.05 0.03 0.02 0.02 0.02 0.04 0.04 0.06 0.07 0.07 0.08 0.08 0.07 0.05 0.05 0.08
0.14 0.18 0.35 0.39 0.33 0.32 0.34 0.33 0.28 0.21 0.17 0.13 0.09 0.06 0.04 0.03 0.04 0.05 0.05 0.05 0.04 0.03 0.02 0.02 0.02 0.02 0.03 0.05 0.07 0.03 0.05 0.08 0.06 0.05 0.05 0.04 0.02 0.02
0.20 0.31 0.44 0.46 0.39 0.30 0.22 0.16 0.12 0.08 0.06 0.04 0.02 0.02 0.01 0.01 0.01 0.01 0.01 0.01 0.01 0.02 0.03 0.05 0.05 0.04 0.05 0.06 0.07 0.08 0.04 0.05 0.05 0.04 0.03 0.03 0.02 0.01
0.15 0.24 0.32 0.37 0.30 0.15 0.06 0.03 0.02 0.02 0.02 0.01 0.01 0.01 0.01 0.01 0.01 0.01 0.01 0.01 0.01 0.03 0.04 0.05 0.03 0.01 0.02 0.05 0.07 0.07 0.06 0.04 0.03 0.02 0.01 0.01 0.01 0.01
0.04 0.07 0.09 0.09 0.05 0.02 0.01 0.01 0.00 0.00 0.00 0.00 0.00 0.01 0.01 0.01 0.01 0.02 0.02 0.03 0.03 0.03 0.03 0.03 0.02 0.02 0.04 0.06 0.06 0.05 0.04 0.03 0.03 0.04 0.04 0.03 0.03 0.02
0.01 0.01 0.01 0.01 0.00 0.00 0.00 0.00 0.00 0.00 0.00 0.00 0.01 0.01 0.01 0.01 0.02 0.02 0.02 0.02 0.02 0.01 0.01 0.02 0.02 0.02 0.03 0.04 0.04 0.05 0.04 0.04 0.03 0.04 0.04 0.05 0.06 0.05

GEFSNE_prec_meanprecacc_024.txt.gz
Total_Precipitation_Accumulation
0.16 0.16 0.15 0.17 0.23 0.27 0.28 0.28 0.28 0.31 0.33 0.19 0.09 0.05 0.04 0.02 0.01 0.01 0.00 0.00 0.00 0.00 0.00 0.00 0.00 0.00 0.00 0.00 0.00 0.00 0.00 0.00 0.00 0.00 0.00 0.00 0.00 0.00
0.16 0.15 0.14 0.14 0.17 0.21 0.26 0.30 0.29 0.28 0.29 0.22 0.16 0.10 0.11 0.08 0.08 0.03 0.01 0.01 0.00 0.00 0.00 0.00 0.00 0.00 0.00 0.00 0.00 0.00 0.00 0.00 0.00 0.00 0.00 0.00 0.00 0.00
0.15 0.14 0.17 0.22 0.19 0.18 0.24 0.28 0.31 0.33 0.29 0.26 0.15 0.11 0.14 0.14 0.17 0.09 0.04 0.02 0.03 0.03 0.01 0.00 0.00 0.00 0.00 0.00 0.00 0.00 0.00 0.00 0.00 0.00 0.00 0.00 0.00 0.00
0.10 0.09 0.09 0.13 0.16 0.20 0.25 0.26 0.30 0.32 0.30 0.28 0.23 0.18 0.21 0.20 0.22 0.18 0.12 0.08 0.08 0.12 0.14 0.06 0.03 0.02 0.01 0.00 0.00 0.00 0.00 0.00 0.00 0.00 0.00 0.00 0.00 0.00
0.11 0.09 0.07 0.07 0.12 0.17 0.24 0.31 0.33 0.32 0.32 0.26 0.29 0.31 0.27 0.25 0.25 0.22 0.18 0.17 0.16 0.16 0.24 0.19 0.11 0.07 0.04 0.03 0.01 0.00 0.00 0.00 0.00 0.00 0.00 0.00 0.00 0.00
0.13 0.10 0.08 0.09 0.09 0.14 0.22 0.33 0.42 0.45 0.42 0.35 0.34 0.36 0.33 0.29 0.24 0.23 0.25 0.24 0.23 0.19 0.19 0.22 0.20 0.14 0.09 0.07 0.05 0.03 0.02 0.01 0.00 0.00 0.00 0.00 0.00 0.00
0.13 0.11 0.11 0.09 0.07 0.10 0.12 0.23 0.33 0.43 0.49 0.50 0.45 0.41 0.36 0.30 0.25 0.25 0.24 0.28 0.25 0.24 0.20 0.19 0.19 0.17 0.15 0.13 0.10 0.08 0.06 0.04 0.03 0.01 0.00 0.00 0.00 0.00
0.16 0.13 0.13 0.09 0.05 0.05 0.05 0.07 0.12 0.20 0.31 0.41 0.47 0.44 0.43 0.38 0.33 0.29 0.24 0.22 0.23 0.24 0.22 0.24 0.24 0.21 0.20 0.18 0.19 0.20 0.16 0.11 0.07 0.04 0.02 0.01 0.01 0.00
0.13 0.14 0.16 0.12 0.08 0.10 0.11 0.09 0.10 0.10 0.10 0.17 0.26 0.32 0.35 0.38 0.31 0.25 0.21 0.21 0.24 0.24 0.20 0.19 0.20 0.19 0.18 0.16 0.17 0.17 0.18 0.16 0.13 0.10 0.06 0.04 0.03 0.02
0.15 0.14 0.18 0.20 0.22 0.20 0.15 0.14 0.16 0.16 0.10 0.07 0.13 0.21 0.23 0.28 0.29 0.26 0.23 0.19 0.17 0.14 0.10 0.08 0.09 0.10 0.11 0.11 0.11 0.10 0.11 0.12 0.11 0.11 0.10 0.10 0.08 0.07
0.19 0.20 0.24 0.27 0.34 0.27 0.15 0.15 0.20 0.18 0.14 0.11 0.08 0.10 0.12 0.17 0.21 0.24 0.25 0.21 0.20 0.17 0.13 0.08 0.07 0.06 0.06 0.08 0.07 0.07 0.06 0.06 0.06 0.05 0.06 0.06 0.07 0.07
0.22 0.25 0.31 0.27 0.30 0.22 0.10 0.20 0.30 0.25 0.18 0.20 0.22 0.22 0.20 0.24 0.27 0.28 0.35 0.36 0.34 0.30 0.23 0.18 0.17 0.16 0.15 0.13 0.08 0.05 0.03 0.03 0.03 0.02 0.03 0.04 0.05 0.05
0.12 0.15 0.13 0.12 0.11 0.11 0.09 0.19 0.30 0.18 0.13 0.22 0.30 0.31 0.28 0.25 0.27 0.29 0.33 0.39 0.43 0.45 0.40 0.32 0.28 0.25 0.21 0.18 0.12 0.07 0.04 0.03 0.02 0.03 0.03 0.04 0.04 0.04
0.05 0.06 0.05 0.05 0.04 0.06 0.08 0.13 0.15 0.10 0.13 0.20 0.21 0.17 0.17 0.16 0.14 0.14 0.17 0.22 0.24 0.28 0.27 0.22 0.21 0.20 0.17 0.13 0.10 0.08 0.05 0.03 0.03 0.03 0.03 0.03 0.03 0.03
0.01 0.01 0.01 0.01 0.01 0.03 0.05 0.07 0.10 0.14 0.18 0.18 0.17 0.12 0.10 0.08 0.07 0.09 0.12 0.13 0.14 0.11 0.08 0.07 0.08 0.08 0.07 0.06 0.05 0.04 0.04 0.03 0.03 0.02 0.03 0.03 0.03 0.03
0.03 0.03 0.02 0.03 0.03 0.06 0.09 0.10 0.14 0.18 0.19 0.19 0.14 0.10 0.09 0.08 0.08 0.08 0.09 0.09 0.10 0.10 0.07 0.06 0.06 0.05 0.05 0.05 0.05 0.05 0.05 0.05 0.06 0.07 0.06 0.05 0.04 0.04
0.06 0.10 0.15 0.20 0.18 0.18 0.20 0.20 0.23 0.20 0.17 0.17 0.16 0.14 0.14 0.13 0.10 0.06 0.05 0.05 0.06 0.08 0.09 0.09 0.07 0.05 0.04 0.05 0.06 0.07 0.07 0.06 0.08 0.11 0.10 0.09 0.09 0.11
0.09 0.13 0.23 0.34 0.34 0.33 0.32 0.32 0.33 0.29 0.24 0.20 0.17 0.14 0.12 0.11 0.10 0.08 0.06 0.07 0.09 0.07 0.06 0.03 0.02 0.02 0.02 0.04 0.04 0.06 0.07 0.07 0.08 0.08 0.07 0.05 0.05 0.09
0.14 0.19 0.36 0.40 0.35 0.35 0.36 0.35 0.29 0.23 0.18 0.13 0.09 0.06 0.04 0.03 0.04 0.05 0.05 0.05 0.04 0.03 0.02 0.02 0.02 0.02 0.03 0.05 0.07 0.03 0.05 0.08 0.06 0.05 0.05 0.04 0.02 0.03
0.20 0.31 0.45 0.47 0.40 0.31 0.23 0.16 0.13 0.08 0.06 0.04 0.02 0.02 0.01 0.01 0.01 0.01 0.01 0.01 0.01 0.02 0.03 0.05 0.05 0.04 0.05 0.07 0.08 0.08 0.04 0.05 0.05 0.04 0.03 0.03 0.02 0.02
0.15 0.24 0.32 0.37 0.30 0.16 0.06 0.03 0.02 0.02 0.02 0.01 0.01 0.01 0.01 0.01 0.01 0.01 0.01 0.01 0.01 0.03 0.04 0.05 0.03 0.01 0.02 0.05 0.07 0.07 0.06 0.04 0.03 0.02 0.01 0.01 0.01 0.01
0.04 0.07 0.09 0.09 0.05 0.02 0.01 0.01 0.00 0.00 0.00 0.00 0.00 0.01 0.01 0.01 0.01 0.02 0.02 0.03 0.03 0.03 0.03 0.03 0.02 0.02 0.04 0.06 0.06 0.05 0.04 0.03 0.03 0.04 0.04 0.03 0.03 0.02
0.01 0.01 0.01 0.01 0.00 0.00 0.00 0.00 0.00 0.00 0.00 0.00 0.01 0.01 0.01 0.01 0.02 0.02 0.02 0.02 0.02 0.01 0.01 0.02 0.02 0.02 0.03 0.04 0.04 0.05 0.04 0.04 0.03 0.04 0.04 0.05 0.06 0.05

GEFSNE_prec_meanprecacc_030.txt.gz
Total_Precipitation_Accumulation
0.30 0.29 0.27 0.29 0.34 0.37 0.36 0.33 0.31 0.33 0.34 0.19 0.09 0.05 0.04 0.02 0.02 0.01 0.00 0.01 0.02 0.02 0.01 0.01 0.01 0.00 0.01 0.01 0.02 0.01 0.01 0.01 0.00 0.00 0.00 0.00 0.00 0.00
0.27 0.26 0.24 0.22 0.26 0.29 0.34 0.35 0.32 0.30 0.30 0.22 0.16 0.10 0.11 0.08 0.08 0.03 0.01 0.01 0.02 0.02 0.01 0.01 0.01 0.00 0.01 0.01 0.01 0.01 0.01 0.00 0.00 0.00 0.00 0.00 0.00 0.00
0.24 0.22 0.24 0.28 0.25 0.24 0.30 0.33 0.34 0.35 0.29 0.27 0.15 0.11 0.14 0.14 0.17 0.09 0.04 0.03 0.03 0.04 0.02 0.01 0.00 0.00 0.00 0.00 0.00 0.00 0.00 0.00 0.00 0.00 0.00 0.00 0.00 0.00
0.18 0.16 0.17 0.20 0.23 0.26 0.30 0.30 0.32 0.34 0.30 0.28 0.23 0.18 0.21 0.20 0.22 0.19 0.13 0.09 0.09 0.14 0.16 0.07 0.04 0.03 0.02 0.01 0.01 0.00 0.00 0.00 0.00 0.00 0.00 0.00 0.00 0.00
0.16 0.15 0.14 0.15 0.21 0.24 0.29 0.35 0.36 0.34 0.32 0.26 0.29 0.31 0.27 0.25 0.25 0.22 0.19 0.19 0.18 0.18 0.26 0.22 0.15 0.11 0.07 0.06 0.04 0.03 0.02 0.01 0.01 0.01 0.01 0.00 0.00 0.00
0.19 0.17 0.15 0.15 0.16 0.20 0.26 0.37 0.44 0.46 0.43 0.36 0.34 0.36 0.33 0.29 0.24 0.23 0.26 0.27 0.26 0.23 0.24 0.27 0.26 0.20 0.16 0.14 0.11 0.08 0.06 0.04 0.03 0.02 0.01 0.01 0.01 0.00
0.18 0.17 0.17 0.14 0.12 0.14 0.15 0.25 0.34 0.45 0.50 0.51 0.46 0.41 0.36 0.30 0.26 0.26 0.26 0.31 0.28 0.28 0.25 0.24 0.25 0.24 0.22 0.20 0.17 0.15 0.13 0.11 0.09 0.07 0.05 0.04 0.03 0.02
0.19 0.17 0.18 0.14 0.10 0.08 0.07 0.09 0.13 0.21 0.32 0.41 0.47 0.44 0.43 0.38 0.34 0.30 0.25 0.24 0.26 0.27 0.25 0.28 0.29 0.28 0.28 0.25 0.28 0.28 0.22 0.17 0.13 0.09 0.08 0.06 0.06 0.06
0.16 0.19 0.22 0.19 0.14 0.15 0.14 0.11 0.12 0.11 0.11 0.17 0.26 0.32 0.35 0.38 0.32 0.26 0.22 0.23 0.27 0.26 0.23 0.22 0.23 0.23 0.23 0.21 0.21 0.22 0.23 0.21 0.18 0.15 0.13 0.12 0.12 0.11
0.16 0.17 0.24 0.28 0.30 0.26 0.20 0.17 0.18 0.18 0.12 0.08 0.14 0.21 0.23 0.28 0.29 0.27 0.24 0.20 0.19 0.15 0.12 0.11 0.11 0.12 0.13 0.14 0.14 0.13 0.14 0.14 0.14 0.14 0.15 0.15 0.14 0.14
0.20 0.22 0.28 0.33 0.41 0.34 0.20 0.21 0.23 0.21 0.16 0.13 0.10 0.11 0.13 0.17 0.21 0.24 0.25 0.22 0.20 0.18 0.14 0.10 0.08 0.07 0.07 0.08 0.08 0.07 0.07 0.07 0.06 0.06 0.07 0.07 0.08 0.09
0.23 0.26 0.33 0.32 0.35 0.28 0.15 0.25 0.34 0.29 0.20 0.21 0.23 0.23 0.21 0.25 0.29 0.29 0.35 0.36 0.34 0.30 0.23 0.18 0.17 0.16 0.15 0.13 0.08 0.05 0.03 0.03 0.03 0.03 0.03 0.04 0.05 0.05
0.12 0.15 0.14 0.16 0.16 0.16 0.17 0.25 0.34 0.23 0.16 0.23 0.31 0.32 0.29 0.26 0.27 0.29 0.33 0.39 0.43 0.45 0.40 0.32 0.28 0.25 0.21 0.18 0.12 0.07 0.04 0.03 0.02 0.03 0.03 0.04 0.04 0.04
0.05 0.07 0.05 0.06 0.08 0.10 0.13 0.19 0.20 0.14 0.15 0.21 0.22 0.18 0.19 0.17 0.14 0.14 0.17 0.22 0.24 0.28 0.27 0.22 0.21 0.20 0.17 0.13 0.10 0.08 0.05 0.03 0.03 0.03 0.03 0.03 0.03 0.03
0.01 0.02 0.01 0.02 0.03 0.07 0.10 0.12 0.13 0.17 0.20 0.19 0.18 0.13 0.11 0.09 0.08 0.09 0.12 0.13 0.14 0.11 0.08 0.07 0.08 0.08 0.07 0.06 0.05 0.04 0.04 0.03 0.03 0.02 0.03 0.03 0.03 0.03
0.03 0.04 0.03 0.03 0.04 0.07 0.12 0.13 0.16 0.20 0.21 0.19 0.14 0.11 0.09 0.08 0.08 0.08 0.09 0.09 0.10 0.10 0.07 0.06 0.06 0.05 0.05 0.05 0.05 0.05 0.05 0.05 0.06 0.07 0.06 0.05 0.04 0.04
0.06 0.10 0.16 0.21 0.18 0.18 0.21 0.22 0.25 0.22 0.18 0.18 0.16 0.14 0.14 0.13 0.10 0.06 0.05 0.05 0.06 0.08 0.09 0.09 0.07 0.05 0.04 0.05 0.06 0.07 0.07 0.06 0.08 0.11 0.10 0.09 0.09 0.11
0.09 0.13 0.24 0.35 0.34 0.34 0.33 0.33 0.34 0.30 0.25 0.20 0.17 0.14 0.12 0.11 0.10 0.08 0.06 0.07 0.09 0.07 0.06 0.03 0.02 0.02 0.02 0.04 0.04 0.06 0.07 0.07 0.08 0.08 0.07 0.05 0.05 0.09
0.14 0.19 0.36 0.40 0.35 0.35 0.36 0.35 0.30 0.23 0.18 0.13 0.09 0.06 0.04 0.04 0.04 0.05 0.05 0.05 0.04 0.03 0.02 0.02 0.02 0.02 0.03 0.05 0.07 0.03 0.05 0.08 0.06 0.05 0.05 0.04 0.02 0.03
0.20 0.32 0.45 0.47 0.40 0.31 0.23 0.17 0.13 0.09 0.06 0.04 0.02 0.02 0.01 0.01 0.01 0.01 0.01 0.01 0.01 0.02 0.03 0.05 0.05 0.04 0.05 0.07 0.08 0.08 0.04 0.05 0.05 0.04 0.03 0.03 0.02 0.02
0.15 0.24 0.32 0.38 0.31 0.16 0.06 0.03 0.02 0.02 0.02 0.01 0.01 0.01 0.01 0.01 0.01 0.01 0.01 0.01 0.01 0.03 0.04 0.05 0.03 0.01 0.02 0.05 0.07 0.07 0.06 0.04 0.03 0.02 0.01 0.01 0.01 0.01
0.04 0.07 0.09 0.09 0.05 0.02 0.01 0.01 0.00 0.00 0.00 0.00 0.00 0.01 0.01 0.01 0.01 0.02 0.02 0.03 0.03 0.03 0.03 0.03 0.02 0.02 0.04 0.06 0.06 0.05 0.04 0.03 0.03 0.04 0.04 0.03 0.03 0.02
0.01 0.01 0.01 0.01 0.00 0.00 0.00 0.00 0.00 0.00 0.00 0.00 0.01 0.01 0.01 0.01 0.02 0.02 0.02 0.02 0.02 0.01 0.01 0.02 0.02 0.02 0.03 0.04 0.04 0.05 0.04 0.04 0.03 0.04 0.04 0.05 0.06 0.05

GEFSNE_prec_meanprecacc_036.txt.gz
Total_Precipitation_Accumulation
0.44 0.44 0.42 0.45 0.52 0.55 0.54 0.50 0.46 0.45 0.43 0.25 0.12 0.06 0.04 0.02 0.02 0.01 0.00 0.01 0.02 0.03 0.02 0.01 0.01 0.01 0.01 0.01 0.02 0.03 0.02 0.02 0.01 0.01 0.00 0.00 0.00 0.00
0.42 0.43 0.42 0.40 0.44 0.47 0.52 0.54 0.49 0.44 0.42 0.31 0.20 0.11 0.11 0.08 0.08 0.03 0.01 0.01 0.02 0.02 0.02 0.01 0.01 0.01 0.01 0.01 0.01 0.01 0.01 0.01 0.00 0.00 0.00 0.00 0.00 0.00
0.38 0.38 0.42 0.47 0.45 0.43 0.48 0.51 0.53 0.51 0.43 0.37 0.22 0.14 0.15 0.14 0.17 0.09 0.04 0.03 0.04 0.04 0.03 0.01 0.01 0.01 0.01 0.01 0.01 0.01 0.01 0.00 0.00 0.00 0.00 0.00 0.00 0.00
0.28 0.27 0.28 0.32 0.37 0.41 0.45 0.44 0.46 0.47 0.42 0.38 0.30 0.22 0.23 0.21 0.22 0.19 0.13 0.09 0.09 0.14 0.16 0.08 0.05 0.05 0.04 0.02 0.01 0.01 0.01 0.00 0.00 0.01 0.01 0.01 0.01 0.00
0.28 0.27 0.24 0.24 0.30 0.33 0.40 0.47 0.47 0.44 0.42 0.35 0.36 0.35 0.29 0.26 0.26 0.22 0.19 0.20 0.18 0.18 0.27 0.23 0.16 0.12 0.08 0.06 0.05 0.03 0.02 0.02 0.01 0.01 0.02 0.01 0.01 0.01
0.29 0.28 0.25 0.26 0.26 0.30 0.36 0.47 0.53 0.55 0.51 0.42 0.39 0.39 0.34 0.30 0.25 0.25 0.29 0.31 0.29 0.25 0.26 0.30 0.29 0.22 0.18 0.16 0.13 0.10 0.07 0.05 0.04 0.04 0.04 0.04 0.04 0.04
0.27 0.26 0.27 0.24 0.21 0.24 0.25 0.35 0.43 0.53 0.56 0.55 0.50 0.44 0.37 0.32 0.27 0.28 0.29 0.34 0.31 0.32 0.31 0.29 0.30 0.28 0.27 0.23 0.19 0.17 0.16 0.14 0.11 0.09 0.09 0.08 0.07 0.06
0.28 0.27 0.27 0.25 0.21 0.17 0.13 0.14 0.21 0.29 0.39 0.47 0.52 0.48 0.46 0.40 0.36 0.32 0.28 0.29 0.29 0.32 0.30 0.32 0.33 0.32 0.31 0.27 0.29 0.31 0.25 0.19 0.15 0.13 0.11 0.10 0.09 0.09
0.24 0.29 0.31 0.29 0.31 0.31 0.24 0.16 0.16 0.15 0.16 0.22 0.31 0.36 0.38 0.40 0.34 0.29 0.27 0.31 0.31 0.30 0.27 0.26 0.26 0.25 0.24 0.21 0.22 0.23 0.24 0.22 0.20 0.18 0.15 0.14 0.13 0.13
0.21 0.25 0.35 0.40 0.44 0.44 0.34 0.29 0.24 0.21 0.15 0.10 0.17 0.23 0.25 0.31 0.31 0.30 0.28 0.24 0.21 0.18 0.15 0.13 0.13 0.14 0.14 0.15 0.15 0.14 0.14 0.15 0.15 0.15 0.15 0.15 0.15 0.15
0.22 0.26 0.35 0.43 0.54 0.51 0.39 0.37 0.34 0.25 0.20 0.18 0.15 0.14 0.17 0.21 0.23 0.26 0.28 0.25 0.22 0.20 0.15 0.11 0.10 0.09 0.08 0.09 0.08 0.07 0.07 0.07 0.06 0.06 0.07 0.07 0.08 0.09
0.24 0.28 0.39 0.42 0.48 0.43 0.34 0.45 0.49 0.35 0.22 0.23 0.25 0.25 0.23 0.27 0.33 0.34 0.42 0.42 0.36 0.32 0.24 0.19 0.18 0.17 0.16 0.14 0.09 0.05 0.03 0.03 0.03 0.03 0.03 0.04 0.05 0.05
0.13 0.17 0.17 0.23 0.25 0.28 0.33 0.41 0.47 0.30 0.19 0.24 0.32 0.33 0.29 0.26 0.28 0.31 0.37 0.45 0.47 0.46 0.41 0.33 0.29 0.27 0.23 0.18 0.13 0.08 0.04 0.03 0.02 0.03 0.03 0.04 0.04 0.04
0.06 0.08 0.08 0.12 0.16 0.19 0.24 0.29 0.27 0.23 0.20 0.24 0.25 0.20 0.20 0.18 0.14 0.14 0.18 0.22 0.25 0.28 0.27 0.23 0.22 0.21 0.18 0.14 0.11 0.08 0.05 0.04 0.03 0.03 0.03 0.03 0.03 0.03
0.02 0.03 0.04 0.06 0.08 0.13 0.20 0.21 0.21 0.27 0.29 0.25 0.21 0.14 0.12 0.10 0.08 0.10 0.12 0.13 0.14 0.11 0.08 0.08 0.09 0.09 0.07 0.06 0.05 0.05 0.04 0.03 0.03 0.02 0.03 0.03 0.03 0.03
0.03 0.04 0.05 0.06 0.08 0.12 0.17 0.20 0.23 0.29 0.32 0.25 0.16 0.11 0.10 0.09 0.08 0.09 0.10 0.09 0.10 0.10 0.07 0.06 0.06 0.05 0.05 0.05 0.05 0.05 0.05 0.05 0.06 0.07 0.06 0.05 0.04 0.04
0.07 0.12 0.18 0.22 0.20 0.21 0.24 0.25 0.29 0.26 0.24 0.21 0.18 0.16 0.15 0.14 0.10 0.07 0.05 0.05 0.06 0.08 0.09 0.09 0.07 0.05 0.04 0.05 0.06 0.07 0.07 0.06 0.08 0.11 0.10 0.09 0.09 0.11
0.10 0.14 0.25 0.36 0.35 0.35 0.35 0.35 0.36 0.32 0.28 0.24 0.20 0.16 0.14 0.13 0.11 0.09 0.06 0.07 0.09 0.07 0.06 0.03 0.02 0.02 0.02 0.04 0.04 0.06 0.07 0.07 0.08 0.08 0.07 0.05 0.05 0.09
0.15 0.19 0.36 0.41 0.35 0.35 0.37 0.36 0.30 0.23 0.19 0.15 0.10 0.07 0.05 0.04 0.04 0.05 0.05 0.05 0.04 0.03 0.02 0.02 0.02 0.03 0.03 0.05 0.07 0.03 0.05 0.08 0.07 0.05 0.05 0.04 0.02 0.03
0.20 0.32 0.45 0.47 0.40 0.31 0.24 0.17 0.13 0.09 0.06 0.04 0.03 0.02 0.02 0.01 0.01 0.01 0.01 0.01 0.01 0.02 0.03 0.05 0.05 0.04 0.05 0.07 0.08 0.08 0.04 0.05 0.05 0.04 0.03 0.03 0.02 0.02
0.15 0.24 0.32 0.38 0.31 0.16 0.06 0.03 0.02 0.02 0.02 0.01 0.01 0.01 0.01 0.01 0.01 0.01 0.01 0.01 0.01 0.03 0.04 0.05 0.03 0.01 0.02 0.05 0.07 0.07 0.06 0.04 0.03 0.02 0.01 0.01 0.01 0.01
0.04 0.07 0.09 0.09 0.05 0.02 0.01 0.01 0.00 0.00 0.00 0.00 0.01 0.01 0.01 0.01 0.01 0.02 0.02 0.03 0.03 0.03 0.03 0.03 0.02 0.02 0.04 0.06 0.06 0.05 0.04 0.03 0.03 0.04 0.04 0.03 0.03 0.02
0.01 0.01 0.01 0.01 0.00 0.00 0.00 0.00 0.00 0.00 0.00 0.00 0.01 0.01 0.01 0.01 0.02 0.02 0.02 0.02 0.02 0.01 0.01 0.02 0.02 0.02 0.03 0.04 0.04 0.05 0.04 0.04 0.03 0.04 0.04 0.05 0.06 0.05

GEFSNE_prec_meanprecacc_042.txt.gz
Total_Precipitation_Accumulation
0.75 0.75 0.70 0.70 0.73 0.73 0.67 0.63 0.59 0.57 0.54 0.34 0.20 0.11 0.09 0.06 0.06 0.04 0.02 0.02 0.03 0.03 0.02 0.01 0.01 0.02 0.02 0.03 0.04 0.05 0.05 0.05 0.04 0.03 0.02 0.02 0.01 0.01
0.64 0.67 0.67 0.66 0.68 0.67 0.67 0.67 0.61 0.55 0.54 0.42 0.31 0.18 0.16 0.12 0.10 0.05 0.03 0.03 0.02 0.02 0.02 0.02 0.02 0.01 0.02 0.02 0.02 0.02 0.02 0.02 0.01 0.01 0.01 0.01 0.01 0.01
0.51 0.50 0.57 0.65 0.64 0.61 0.64 0.64 0.65 0.63 0.55 0.48 0.32 0.22 0.23 0.21 0.21 0.12 0.06 0.05 0.05 0.05 0.03 0.02 0.02 0.02 0.02 0.02 0.01 0.01 0.01 0.01 0.01 0.01 0.01 0.01 0.01 0.01
0.38 0.38 0.39 0.44 0.50 0.55 0.60 0.58 0.61 0.62 0.57 0.52 0.41 0.32 0.32 0.29 0.30 0.25 0.17 0.14 0.15 0.18 0.18 0.09 0.06 0.07 0.05 0.03 0.02 0.01 0.01 0.01 0.01 0.01 0.02 0.02 0.01 0.02
0.37 0.35 0.33 0.33 0.40 0.44 0.51 0.59 0.60 0.56 0.54 0.48 0.49 0.47 0.38 0.33 0.33 0.29 0.25 0.30 0.28 0.24 0.31 0.26 0.19 0.14 0.09 0.07 0.06 0.04 0.02 0.02 0.02 0.02 0.02 0.02 0.01 0.01
0.37 0.36 0.34 0.34 0.34 0.38 0.44 0.55 0.62 0.63 0.59 0.51 0.48 0.49 0.44 0.37 0.33 0.34 0.41 0.47 0.43 0.33 0.34 0.36 0.33 0.25 0.19 0.17 0.14 0.10 0.08 0.06 0.04 0.04 0.04 0.04 0.04 0.04
0.36 0.34 0.34 0.30 0.28 0.32 0.31 0.41 0.49 0.58 0.62 0.62 0.57 0.52 0.46 0.39 0.36 0.38 0.41 0.48 0.47 0.49 0.44 0.40 0.37 0.33 0.30 0.25 0.20 0.17 0.16 0.14 0.12 0.10 0.10 0.09 0.08 0.07
0.36 0.35 0.33 0.31 0.28 0.23 0.19 0.20 0.28 0.37 0.46 0.54 0.60 0.58 0.56 0.50 0.48 0.45 0.42 0.40 0.40 0.47 0.44 0.44 0.42 0.37 0.34 0.29 0.30 0.31 0.25 0.19 0.15 0.13 0.12 0.10 0.09 0.09
0.31 0.38 0.42 0.39 0.41 0.41 0.30 0.22 0.22 0.21 0.23 0.31 0.42 0.50 0.51 0.52 0.46 0.45 0.46 0.49 0.42 0.39 0.34 0.33 0.32 0.29 0.25 0.22 0.22 0.23 0.24 0.22 0.20 0.18 0.15 0.14 0.13 0.13
0.28 0.35 0.48 0.52 0.55 0.55 0.47 0.42 0.35 0.28 0.23 0.21 0.31 0.36 0.37 0.43 0.45 0.48 0.46 0.38 0.33 0.27 0.21 0.17 0.16 0.15 0.15 0.15 0.15 0.14 0.14 0.15 0.15 0.15 0.15 0.15 0.15 0.15
0.26 0.32 0.47 0.54 0.61 0.62 0.56 0.57 0.49 0.34 0.27 0.29 0.26 0.24 0.26 0.32 0.35 0.40 0.42 0.36 0.31 0.27 0.20 0.13 0.11 0.10 0.09 0.09 0.08 0.07 0.07 0.07 0.06 0.06 0.07 0.07 0.08 0.09
0.28 0.32 0.47 0.53 0.56 0.52 0.50 0.64 0.65 0.48 0.31 0.29 0.30 0.30 0.29 0.35 0.45 0.52 0.61 0.56 0.44 0.36 0.27 0.21 0.20 0.19 0.17 0.15 0.09 0.05 0.04 0.03 0.03 0.03 0.03 0.04 0.05 0.05
0.17 0.21 0.20 0.30 0.34 0.36 0.45 0.54 0.61 0.43 0.30 0.36 0.42 0.40 0.36 0.34 0.38 0.44 0.54 0.62 0.59 0.50 0.43 0.35 0.31 0.30 0.25 0.19 0.13 0.08 0.04 0.03 0.02 0.03 0.03 0.04 0.04 0.04
0.10 0.12 0.11 0.17 0.23 0.27 0.32 0.35 0.37 0.36 0.33 0.39 0.37 0.27 0.25 0.23 0.18 0.20 0.26 0.32 0.33 0.32 0.30 0.26 0.26 0.26 0.20 0.15 0.11 0.08 0.05 0.04 0.03 0.03 0.03 0.03 0.03 0.03
0.04 0.07 0.07 0.10 0.13 0.19 0.25 0.26 0.30 0.41 0.44 0.37 0.30 0.19 0.15 0.11 0.09 0.12 0.16 0.16 0.16 0.13 0.10 0.10 0.12 0.12 0.09 0.07 0.05 0.05 0.04 0.03 0.03 0.02 0.03 0.03 0.03 0.03
0.06 0.07 0.07 0.10 0.14 0.17 0.22 0.28 0.36 0.41 0.46 0.35 0.21 0.14 0.11 0.09 0.09 0.10 0.11 0.10 0.11 0.11 0.08 0.06 0.07 0.05 0.05 0.05 0.05 0.05 0.05 0.05 0.06 0.07 0.06 0.05 0.04 0.04
0.09 0.15 0.22 0.28 0.27 0.28 0.33 0.36 0.39 0.35 0.34 0.29 0.22 0.19 0.18 0.16 0.11 0.07 0.06 0.06 0.07 0.08 0.09 0.09 0.07 0.05 0.04 0.05 0.06 0.07 0.07 0.06 0.08 0.11 0.10 0.09 0.09 0.11
0.15 0.19 0.29 0.40 0.39 0.42 0.44 0.45 0.45 0.40 0.36 0.30 0.26 0.21 0.18 0.15 0.12 0.10 0.07 0.08 0.09 0.07 0.06 0.03 0.02 0.02 0.02 0.04 0.04 0.06 0.07 0.07 0.08 0.08 0.07 0.05 0.05 0.09
0.17 0.21 0.38 0.42 0.37 0.39 0.43 0.43 0.35 0.27 0.24 0.21 0.15 0.10 0.08 0.06 0.06 0.06 0.05 0.05 0.04 0.03 0.02 0.02 0.02 0.03 0.03 0.05 0.07 0.03 0.05 0.08 0.07 0.05 0.05 0.04 0.02 0.03
0.21 0.32 0.45 0.48 0.41 0.33 0.27 0.20 0.15 0.11 0.09 0.08 0.06 0.04 0.03 0.02 0.02 0.02 0.01 0.01 0.01 0.02 0.03 0.05 0.05 0.04 0.05 0.07 0.08 0.08 0.04 0.05 0.05 0.04 0.03 0.03 0.02 0.02
0.16 0.25 0.33 0.38 0.31 0.17 0.08 0.05 0.04 0.03 0.03 0.03 0.03 0.02 0.02 0.02 0.01 0.01 0.01 0.01 0.01 0.03 0.04 0.05 0.03 0.01 0.02 0.05 0.07 0.07 0.06 0.04 0.03 0.02 0.01 0.01 0.01 0.01
0.05 0.07 0.09 0.09 0.06 0.03 0.01 0.01 0.01 0.01 0.01 0.01 0.01 0.01 0.01 0.01 0.02 0.02 0.02 0.03 0.03 0.03 0.03 0.03 0.02 0.02 0.04 0.06 0.06 0.05 0.04 0.03 0.03 0.04 0.04 0.03 0.03 0.02
0.01 0.01 0.01 0.01 0.00 0.00 0.00 0.00 0.00 0.01 0.01 0.01 0.01 0.01 0.01 0.01 0.02 0.02 0.02 0.02 0.02 0.01 0.01 0.02 0.02 0.02 0.03 0.04 0.04 0.05 0.04 0.04 0.03 0.04 0.04 0.05 0.06 0.05

GEFSNE_prec_meanprecacc_048.txt.gz
Total_Precipitation_Accumulation
1.11 1.15 1.07 1.04 1.03 0.97 0.87 0.78 0.71 0.64 0.59 0.39 0.27 0.19 0.19 0.17 0.21 0.20 0.16 0.10 0.08 0.07 0.06 0.04 0.03 0.03 0.04 0.05 0.06 0.07 0.07 0.07 0.05 0.04 0.04 0.04 0.04 0.04
0.92 1.00 1.03 1.03 1.09 1.05 0.96 0.90 0.77 0.66 0.61 0.46 0.35 0.24 0.24 0.20 0.19 0.15 0.13 0.10 0.07 0.06 0.05 0.04 0.04 0.03 0.03 0.03 0.03 0.03 0.03 0.03 0.02 0.02 0.02 0.02 0.02 0.02
0.79 0.79 0.88 0.96 0.99 0.99 0.98 0.91 0.85 0.78 0.65 0.55 0.36 0.27 0.28 0.27 0.27 0.19 0.13 0.10 0.11 0.10 0.08 0.06 0.05 0.06 0.04 0.03 0.03 0.02 0.02 0.02 0.02 0.02 0.03 0.02 0.02 0.02
0.58 0.60 0.65 0.70 0.74 0.79 0.83 0.81 0.80 0.77 0.68 0.62 0.49 0.37 0.37 0.34 0.36 0.32 0.25 0.20 0.22 0.27 0.28 0.19 0.14 0.11 0.09 0.06 0.04 0.02 0.01 0.02 0.02 0.02 0.03 0.03 0.03 0.03
0.52 0.51 0.49 0.54 0.59 0.61 0.66 0.73 0.75 0.70 0.66 0.58 0.59 0.55 0.44 0.37 0.36 0.34 0.34 0.39 0.37 0.35 0.43 0.37 0.27 0.19 0.14 0.11 0.07 0.05 0.03 0.03 0.02 0.02 0.02 0.02 0.02 0.03
0.46 0.46 0.43 0.45 0.47 0.50 0.55 0.64 0.71 0.72 0.67 0.58 0.55 0.55 0.49 0.42 0.37 0.38 0.47 0.56 0.54 0.44 0.44 0.45 0.41 0.32 0.24 0.20 0.15 0.11 0.09 0.06 0.05 0.05 0.05 0.05 0.05 0.05
0.42 0.40 0.41 0.37 0.36 0.40 0.40 0.49 0.56 0.65 0.68 0.68 0.63 0.56 0.49 0.43 0.40 0.43 0.47 0.57 0.59 0.61 0.54 0.48 0.44 0.38 0.33 0.27 0.22 0.19 0.18 0.15 0.12 0.10 0.10 0.09 0.08 0.08
0.39 0.40 0.37 0.36 0.33 0.28 0.23 0.25 0.34 0.42 0.50 0.58 0.64 0.61 0.58 0.52 0.51 0.51 0.48 0.47 0.52 0.58 0.53 0.53 0.49 0.42 0.38 0.31 0.32 0.32 0.26 0.20 0.16 0.13 0.12 0.10 0.09 0.10
0.33 0.40 0.45 0.43 0.45 0.44 0.34 0.26 0.26 0.25 0.26 0.34 0.45 0.53 0.54 0.55 0.50 0.51 0.54 0.57 0.50 0.46 0.41 0.42 0.41 0.34 0.28 0.24 0.24 0.24 0.24 0.23 0.20 0.18 0.15 0.14 0.13 0.13
0.29 0.37 0.51 0.56 0.58 0.59 0.49 0.44 0.37 0.30 0.25 0.24 0.34 0.39 0.41 0.47 0.52 0.58 0.56 0.48 0.41 0.34 0.27 0.24 0.23 0.20 0.17 0.16 0.16 0.15 0.15 0.15 0.15 0.15 0.15 0.15 0.15 0.15
0.28 0.35 0.51 0.58 0.66 0.67 0.60 0.61 0.51 0.36 0.30 0.32 0.30 0.28 0.32 0.39 0.43 0.49 0.50 0.43 0.37 0.33 0.23 0.16 0.15 0.13 0.11 0.10 0.09 0.08 0.07 0.07 0.06 0.06 0.07 0.07 0.08 0.09
0.30 0.35 0.54 0.59 0.60 0.57 0.55 0.69 0.68 0.51 0.33 0.32 0.34 0.37 0.36 0.43 0.55 0.62 0.69 0.62 0.47 0.39 0.29 0.22 0.21 0.20 0.20 0.16 0.09 0.06 0.04 0.03 0.03 0.03 0.03 0.04 0.05 0.05
0.21 0.24 0.26 0.40 0.43 0.42 0.51 0.60 0.67 0.48 0.35 0.43 0.52 0.50 0.46 0.43 0.47 0.55 0.65 0.72 0.63 0.52 0.44 0.36 0.32 0.31 0.25 0.20 0.14 0.08 0.04 0.03 0.02 0.03 0.03 0.04 0.04 0.04
0.12 0.16 0.18 0.29 0.34 0.35 0.41 0.44 0.46 0.45 0.41 0.48 0.46 0.37 0.36 0.34 0.29 0.30 0.36 0.42 0.40 0.37 0.32 0.27 0.27 0.26 0.20 0.15 0.11 0.08 0.05 0.04 0.03 0.03 0.03 0.03 0.03 0.03
0.07 0.12 0.15 0.22 0.23 0.26 0.33 0.34 0.38 0.48 0.52 0.44 0.36 0.27 0.23 0.20 0.18 0.21 0.25 0.27 0.25 0.19 0.15 0.12 0.13 0.12 0.09 0.07 0.05 0.05 0.04 0.03 0.03 0.02 0.03 0.03 0.03 0.03
0.08 0.11 0.14 0.20 0.21 0.22 0.28 0.35 0.42 0.47 0.54 0.41 0.25 0.17 0.15 0.14 0.14 0.15 0.17 0.17 0.20 0.17 0.12 0.09 0.08 0.06 0.05 0.05 0.05 0.05 0.05 0.05 0.06 0.07 0.06 0.05 0.04 0.04
0.11 0.17 0.26 0.34 0.33 0.34 0.39 0.44 0.45 0.39 0.38 0.32 0.24 0.21 0.20 0.18 0.13 0.10 0.09 0.10 0.12 0.13 0.12 0.10 0.07 0.05 0.04 0.05 0.06 0.07 0.07 0.06 0.08 0.11 0.10 0.09 0.09 0.11
0.17 0.21 0.32 0.45 0.45 0.47 0.48 0.49 0.49 0.45 0.40 0.32 0.27 0.22 0.19 0.15 0.13 0.11 0.09 0.12 0.12 0.09 0.07 0.04 0.02 0.02 0.02 0.04 0.04 0.06 0.07 0.07 0.08 0.08 0.07 0.05 0.05 0.09
0.18 0.23 0.40 0.45 0.40 0.41 0.45 0.45 0.37 0.29 0.26 0.22 0.16 0.11 0.08 0.06 0.06 0.07 0.07 0.07 0.05 0.03 0.03 0.02 0.02 0.03 0.03 0.05 0.07 0.03 0.05 0.08 0.07 0.05 0.05 0.04 0.02 0.03
0.21 0.33 0.47 0.49 0.42 0.34 0.28 0.21 0.16 0.11 0.09 0.08 0.06 0.04 0.03 0.02 0.02 0.02 0.02 0.01 0.01 0.02 0.03 0.05 0.05 0.04 0.05 0.07 0.08 0.08 0.04 0.05 0.05 0.04 0.03 0.03 0.02 0.02
0.16 0.25 0.33 0.38 0.32 0.18 0.09 0.06 0.04 0.03 0.03 0.03 0.03 0.02 0.02 0.02 0.01 0.01 0.01 0.01 0.01 0.03 0.04 0.05 0.03 0.01 0.02 0.05 0.07 0.07 0.06 0.04 0.03 0.02 0.01 0.01 0.01 0.01
0.05 0.07 0.09 0.09 0.06 0.03 0.02 0.01 0.01 0.01 0.01 0.01 0.01 0.01 0.01 0.01 0.02 0.02 0.02 0.03 0.03 0.03 0.03 0.03 0.02 0.02 0.04 0.06 0.06 0.05 0.04 0.03 0.03 0.04 0.04 0.03 0.03 0.02
0.01 0.01 0.01 0.01 0.00 0.00 0.00 0.00 0.00 0.01 0.01 0.01 0.01 0.01 0.01 0.01 0.02 0.02 0.02 0.02 0.02 0.01 0.01 0.02 0.02 0.02 0.03 0.04 0.04 0.05 0.04 0.04 0.03 0.04 0.04 0.05 0.06 0.05

GEFSNE_prec_meanprecacc_054.txt.gz
Total_Precipitation_Accumulation
1.22 1.31 1.27 1.24 1.24 1.22 1.14 1.04 0.96 0.84 0.70 0.46 0.33 0.27 0.28 0.27 0.30 0.29 0.24 0.18 0.14 0.13 0.12 0.09 0.06 0.06 0.07 0.08 0.09 0.11 0.11 0.10 0.07 0.05 0.04 0.05 0.06 0.07
1.05 1.16 1.21 1.25 1.33 1.29 1.23 1.17 1.02 0.89 0.80 0.60 0.44 0.33 0.34 0.30 0.31 0.26 0.26 0.24 0.17 0.13 0.11 0.10 0.08 0.07 0.06 0.07 0.06 0.05 0.04 0.04 0.03 0.02 0.03 0.03 0.03 0.03
0.95 0.95 1.05 1.17 1.22 1.25 1.24 1.19 1.14 1.02 0.84 0.72 0.50 0.39 0.40 0.38 0.39 0.31 0.27 0.25 0.23 0.20 0.16 0.14 0.11 0.10 0.07 0.06 0.05 0.04 0.03 0.02 0.03 0.03 0.03 0.03 0.03 0.04
0.75 0.77 0.85 0.90 0.95 1.05 1.15 1.11 1.10 1.07 0.94 0.83 0.66 0.51 0.48 0.44 0.48 0.45 0.39 0.36 0.36 0.40 0.39 0.28 0.20 0.16 0.13 0.09 0.06 0.04 0.02 0.02 0.02 0.03 0.04 0.04 0.05 0.06
0.66 0.66 0.67 0.75 0.84 0.85 0.93 1.02 1.04 1.00 0.94 0.83 0.81 0.73 0.59 0.49 0.48 0.47 0.48 0.54 0.51 0.50 0.56 0.48 0.35 0.26 0.19 0.15 0.10 0.06 0.04 0.03 0.03 0.03 0.03 0.03 0.04 0.05
0.61 0.62 0.60 0.63 0.68 0.73 0.76 0.85 0.94 0.96 0.91 0.82 0.77 0.75 0.67 0.59 0.51 0.51 0.60 0.69 0.68 0.58 0.58 0.57 0.51 0.40 0.32 0.26 0.19 0.13 0.10 0.07 0.06 0.05 0.05 0.05 0.06 0.06
0.54 0.55 0.55 0.51 0.51 0.58 0.57 0.67 0.76 0.85 0.88 0.88 0.83 0.75 0.66 0.59 0.54 0.54 0.59 0.72 0.75 0.73 0.67 0.59 0.52 0.45 0.39 0.32 0.26 0.22 0.20 0.17 0.13 0.11 0.10 0.10 0.09 0.08
0.49 0.51 0.52 0.48 0.45 0.41 0.39 0.42 0.53 0.61 0.68 0.76 0.82 0.77 0.72 0.66 0.64 0.62 0.59 0.61 0.71 0.74 0.64 0.65 0.57 0.49 0.43 0.35 0.36 0.35 0.28 0.21 0.17 0.14 0.12 0.11 0.10 0.10
0.39 0.47 0.55 0.56 0.57 0.56 0.46 0.42 0.42 0.44 0.46 0.53 0.62 0.66 0.66 0.66 0.61 0.62 0.64 0.67 0.60 0.58 0.50 0.53 0.52 0.43 0.35 0.30 0.29 0.27 0.26 0.24 0.21 0.18 0.15 0.14 0.13 0.13
0.34 0.41 0.55 0.61 0.65 0.66 0.57 0.57 0.51 0.43 0.39 0.38 0.48 0.52 0.54 0.60 0.65 0.71 0.68 0.59 0.53 0.45 0.36 0.34 0.34 0.29 0.25 0.23 0.21 0.17 0.16 0.16 0.15 0.15 0.15 0.15 0.15 0.15
0.32 0.38 0.54 0.62 0.71 0.72 0.65 0.67 0.60 0.44 0.39 0.41 0.39 0.39 0.43 0.51 0.56 0.61 0.61 0.53 0.48 0.45 0.31 0.23 0.23 0.21 0.19 0.17 0.14 0.11 0.09 0.07 0.07 0.07 0.07 0.07 0.08 0.09
0.34 0.36 0.57 0.63 0.64 0.61 0.58 0.73 0.73 0.56 0.39 0.37 0.39 0.44 0.44 0.52 0.66 0.74 0.80 0.71 0.54 0.48 0.36 0.28 0.26 0.24 0.25 0.21 0.14 0.08 0.05 0.04 0.03 0.03 0.03 0.04 0.05 0.05
0.22 0.26 0.29 0.44 0.46 0.46 0.54 0.63 0.70 0.53 0.40 0.47 0.56 0.55 0.53 0.52 0.57 0.66 0.77 0.83 0.71 0.57 0.48 0.40 0.36 0.34 0.28 0.23 0.17 0.10 0.05 0.04 0.03 0.03 0.03 0.04 0.04 0.04
0.14 0.18 0.21 0.33 0.38 0.40 0.45 0.48 0.50 0.49 0.46 0.53 0.51 0.42 0.44 0.43 0.38 0.40 0.48 0.56 0.51 0.44 0.36 0.30 0.29 0.28 0.23 0.17 0.13 0.10 0.07 0.04 0.03 0.03 0.03 0.03 0.03 0.03
0.09 0.16 0.20 0.28 0.29 0.31 0.38 0.39 0.42 0.53 0.55 0.49 0.42 0.33 0.30 0.28 0.26 0.30 0.37 0.39 0.35 0.26 0.19 0.15 0.15 0.14 0.10 0.08 0.06 0.06 0.05 0.04 0.03 0.03 0.03 0.03 0.03 0.03
0.10 0.13 0.18 0.25 0.27 0.27 0.32 0.38 0.45 0.51 0.58 0.45 0.30 0.24 0.21 0.21 0.22 0.24 0.28 0.26 0.28 0.24 0.17 0.13 0.12 0.10 0.08 0.06 0.06 0.05 0.05 0.05 0.06 0.07 0.06 0.05 0.04 0.04
0.11 0.19 0.28 0.37 0.37 0.37 0.42 0.46 0.48 0.42 0.42 0.36 0.30 0.28 0.26 0.24 0.21 0.19 0.18 0.18 0.19 0.18 0.15 0.15 0.12 0.09 0.07 0.06 0.06 0.07 0.07 0.06 0.08 0.11 0.10 0.09 0.09 0.11
0.18 0.22 0.34 0.46 0.48 0.50 0.50 0.51 0.51 0.47 0.43 0.36 0.32 0.28 0.23 0.21 0.19 0.17 0.15 0.18 0.19 0.14 0.09 0.06 0.05 0.04 0.04 0.05 0.05 0.06 0.07 0.07 0.08 0.08 0.07 0.05 0.05 0.09
0.19 0.24 0.41 0.47 0.42 0.42 0.46 0.46 0.40 0.31 0.27 0.24 0.18 0.13 0.10 0.09 0.09 0.09 0.10 0.11 0.09 0.07 0.05 0.03 0.04 0.04 0.04 0.05 0.07 0.03 0.05 0.08 0.07 0.05 0.05 0.04 0.02 0.03
0.21 0.33 0.47 0.50 0.42 0.34 0.28 0.22 0.17 0.12 0.10 0.09 0.07 0.04 0.04 0.03 0.03 0.03 0.04 0.03 0.02 0.03 0.05 0.05 0.05 0.05 0.06 0.07 0.08 0.08 0.04 0.05 0.05 0.04 0.03 0.03 0.02 0.02
0.16 0.25 0.33 0.38 0.32 0.18 0.09 0.06 0.04 0.04 0.04 0.03 0.03 0.03 0.02 0.02 0.02 0.02 0.02 0.02 0.02 0.03 0.04 0.05 0.03 0.02 0.02 0.05 0.07 0.07 0.06 0.04 0.03 0.02 0.01 0.01 0.01 0.01
0.05 0.07 0.09 0.09 0.06 0.03 0.02 0.01 0.01 0.01 0.01 0.01 0.01 0.01 0.01 0.01 0.02 0.02 0.02 0.03 0.03 0.03 0.03 0.03 0.02 0.02 0.04 0.06 0.06 0.05 0.04 0.03 0.03 0.04 0.04 0.03 0.03 0.02
0.01 0.01 0.01 0.01 0.00 0.00 0.00 0.00 0.00 0.01 0.01 0.01 0.01 0.01 0.01 0.01 0.02 0.02 0.02 0.02 0.02 0.01 0.01 0.02 0.02 0.02 0.03 0.04 0.04 0.05 0.04 0.04 0.03 0.04 0.04 0.05 0.06 0.05

GEFSNE_prec_meanprecacc_060.txt.gz
Total_Precipitation_Accumulation
1.29 1.40 1.37 1.34 1.37 1.36 1.29 1.22 1.15 1.01 0.81 0.52 0.39 0.32 0.35 0.34 0.40 0.34 0.28 0.21 0.17 0.15 0.14 0.10 0.07 0.07 0.08 0.09 0.11 0.12 0.13 0.12 0.09 0.06 0.05 0.06 0.07 0.07
1.15 1.27 1.32 1.37 1.46 1.43 1.38 1.33 1.21 1.08 0.98 0.73 0.54 0.41 0.42 0.39 0.43 0.32 0.31 0.32 0.22 0.17 0.15 0.13 0.10 0.08 0.08 0.09 0.08 0.05 0.05 0.04 0.03 0.03 0.03 0.04 0.04 0.04
1.03 1.03 1.15 1.27 1.34 1.39 1.40 1.34 1.30 1.21 1.03 0.90 0.66 0.51 0.50 0.47 0.48 0.39 0.36 0.34 0.30 0.26 0.21 0.18 0.14 0.13 0.09 0.07 0.07 0.04 0.03 0.03 0.03 0.03 0.04 0.04 0.04 0.04
0.82 0.86 0.96 1.02 1.08 1.18 1.28 1.26 1.27 1.25 1.13 1.02 0.83 0.67 0.61 0.56 0.60 0.56 0.50 0.47 0.47 0.52 0.49 0.35 0.25 0.20 0.15 0.10 0.07 0.04 0.02 0.02 0.02 0.03 0.04 0.05 0.06 0.07
0.73 0.74 0.78 0.86 0.97 1.00 1.08 1.16 1.20 1.20 1.17 1.07 1.02 0.92 0.77 0.66 0.65 0.62 0.63 0.70 0.68 0.69 0.75 0.61 0.45 0.33 0.24 0.18 0.12 0.07 0.04 0.03 0.03 0.03 0.04 0.04 0.05 0.06
0.67 0.70 0.71 0.74 0.81 0.89 0.93 1.02 1.11 1.16 1.11 1.05 1.01 0.97 0.87 0.81 0.76 0.74 0.80 0.88 0.90 0.79 0.79 0.76 0.67 0.53 0.40 0.32 0.23 0.15 0.11 0.08 0.06 0.05 0.05 0.05 0.06 0.07
0.60 0.63 0.66 0.62 0.64 0.72 0.72 0.83 0.93 1.04 1.07 1.08 1.03 0.96 0.89 0.83 0.80 0.79 0.83 0.95 0.98 0.97 0.92 0.83 0.72 0.59 0.50 0.40 0.32 0.26 0.22 0.18 0.14 0.12 0.11 0.10 0.09 0.09
0.53 0.57 0.63 0.62 0.59 0.57 0.55 0.60 0.70 0.79 0.87 0.96 1.00 0.95 0.91 0.85 0.86 0.87 0.86 0.90 1.03 1.00 0.86 0.92 0.81 0.69 0.59 0.46 0.45 0.41 0.32 0.24 0.19 0.15 0.13 0.11 0.10 0.10
0.42 0.52 0.64 0.68 0.72 0.75 0.62 0.59 0.59 0.61 0.65 0.74 0.82 0.84 0.83 0.83 0.81 0.86 0.89 0.91 0.85 0.85 0.74 0.81 0.77 0.65 0.53 0.45 0.42 0.34 0.31 0.27 0.24 0.20 0.16 0.14 0.14 0.14
0.37 0.46 0.61 0.71 0.77 0.78 0.70 0.72 0.67 0.58 0.53 0.56 0.70 0.74 0.73 0.81 0.89 0.96 0.96 0.87 0.85 0.79 0.65 0.64 0.62 0.52 0.45 0.39 0.36 0.27 0.22 0.20 0.18 0.17 0.16 0.16 0.15 0.15
0.37 0.45 0.60 0.68 0.77 0.78 0.74 0.81 0.77 0.60 0.52 0.55 0.58 0.62 0.66 0.75 0.84 0.89 0.90 0.84 0.82 0.81 0.62 0.47 0.46 0.42 0.39 0.34 0.28 0.22 0.16 0.12 0.10 0.08 0.08 0.08 0.08 0.09
0.37 0.40 0.61 0.68 0.68 0.65 0.65 0.83 0.88 0.72 0.52 0.49 0.54 0.63 0.67 0.76 0.91 0.98 1.04 0.94 0.76 0.71 0.58 0.47 0.45 0.41 0.42 0.37 0.26 0.18 0.12 0.09 0.06 0.04 0.04 0.05 0.06 0.05
0.25 0.29 0.33 0.46 0.49 0.51 0.58 0.70 0.79 0.65 0.56 0.63 0.73 0.74 0.77 0.79 0.83 0.90 1.02 1.06 0.89 0.71 0.60 0.52 0.49 0.45 0.37 0.32 0.26 0.19 0.11 0.07 0.05 0.04 0.04 0.04 0.04 0.04
0.16 0.20 0.25 0.35 0.40 0.45 0.50 0.52 0.55 0.59 0.61 0.71 0.72 0.64 0.65 0.67 0.63 0.65 0.74 0.81 0.70 0.58 0.47 0.38 0.38 0.35 0.29 0.23 0.19 0.16 0.12 0.07 0.05 0.04 0.03 0.04 0.04 0.03
0.10 0.16 0.21 0.29 0.30 0.35 0.43 0.42 0.47 0.63 0.70 0.64 0.60 0.53 0.48 0.46 0.43 0.49 0.58 0.63 0.56 0.42 0.32 0.23 0.22 0.20 0.15 0.13 0.10 0.09 0.08 0.06 0.04 0.03 0.03 0.03 0.03 0.03
0.10 0.14 0.18 0.26 0.29 0.32 0.36 0.43 0.50 0.58 0.69 0.57 0.45 0.41 0.36 0.34 0.35 0.36 0.43 0.43 0.46 0.39 0.29 0.22 0.17 0.15 0.12 0.09 0.08 0.07 0.07 0.07 0.07 0.08 0.06 0.05 0.04 0.04
0.11 0.20 0.29 0.39 0.40 0.40 0.45 0.49 0.51 0.45 0.49 0.44 0.41 0.41 0.38 0.35 0.33 0.29 0.29 0.29 0.30 0.29 0.24 0.21 0.17 0.14 0.12 0.09 0.08 0.08 0.08 0.07 0.09 0.12 0.11 0.09 0.09 0.11
0.18 0.23 0.35 0.47 0.50 0.52 0.53 0.53 0.55 0.50 0.48 0.42 0.40 0.38 0.34 0.30 0.29 0.28 0.25 0.27 0.26 0.21 0.15 0.10 0.08 0.08 0.08 0.09 0.08 0.08 0.08 0.08 0.08 0.08 0.07 0.05 0.05 0.09
0.19 0.25 0.42 0.48 0.44 0.43 0.47 0.49 0.44 0.34 0.32 0.31 0.25 0.22 0.19 0.17 0.16 0.18 0.19 0.18 0.15 0.12 0.09 0.06 0.05 0.06 0.06 0.07 0.09 0.05 0.07 0.09 0.07 0.05 0.05 0.04 0.02 0.03
0.22 0.35 0.48 0.50 0.43 0.34 0.29 0.24 0.19 0.15 0.14 0.14 0.12 0.10 0.11 0.10 0.09 0.09 0.09 0.07 0.07 0.07 0.08 0.07 0.06 0.06 0.07 0.08 0.09 0.09 0.05 0.05 0.05 0.04 0.03 0.03 0.02 0.02
0.16 0.25 0.33 0.39 0.32 0.18 0.10 0.07 0.05 0.05 0.05 0.06 0.06 0.06 0.06 0.07 0.06 0.05 0.05 0.04 0.05 0.06 0.07 0.07 0.05 0.03 0.03 0.06 0.07 0.07 0.06 0.04 0.03 0.02 0.01 0.01 0.01 0.01
0.05 0.07 0.09 0.09 0.06 0.03 0.02 0.02 0.01 0.02 0.02 0.02 0.02 0.02 0.03 0.04 0.05 0.04 0.03 0.04 0.04 0.04 0.05 0.04 0.03 0.03 0.04 0.06 0.07 0.06 0.04 0.03 0.04 0.04 0.04 0.03 0.03 0.02
0.01 0.01 0.01 0.01 0.00 0.00 0.01 0.01 0.01 0.01 0.01 0.01 0.01 0.01 0.02 0.02 0.03 0.04 0.03 0.03 0.03 0.02 0.02 0.02 0.03 0.03 0.04 0.04 0.05 0.05 0.05 0.04 0.03 0.04 0.04 0.05 0.06 0.05